Sturgis, MI

12:18 PM EST on November 23, 2017 (GMT -0500)
Kirsch Municipal

Weather History for KIRS - May, 2013

Change the Weather History Date:

Thursday, May 23, 2013

  Actual Average (KHAI) Record (KHAI)
Temperature  
Mean Temperature 54 °F -  
Max Temperature 60 °F 73 °F 89 °F (1964)
Min Temperature 48 °F 50 °F 28 °F (1963)
Degree Days  
Heating Degree Days 11    
Growing Degree Days 4 (Base 50)    
Moisture  
Dew Point 52 °F    
Average Humidity 90    
Maximum Humidity 100    
Minimum Humidity 77    
Precipitation  
Precipitation 0.00 in - - ()
Sea Level Pressure  
Sea Level Pressure 29.90 in    
Wind  
Wind Speed 6 mph (NW)    
Max Wind Speed 17 mph    
Max Gust Speed 25 mph    
Visibility 8 miles    
Events Rain    
Averages and records for this station are not official NWS values.
T = Trace of Precipitation, MM = Missing Value Source: NWS Daily Summary

Daily Weather History Graph

Daily Weather History Graph

Search for Another Location

Airport or City:

Trip Planner

Search our weather history database for the weather conditions in past years. The results will help you decide how hot, cold, wet, or windy it might be!

Date:

Astronomy

May. 23, 2013 Rise Set
Actual Time 6:14 AM EDT 9:02 PM EDT
Civil Twilight 5:41 AM EDT 9:35 PM EDT
Nautical Twilight 5:00 AM EDT 10:17 PM EDT
Astronomical Twilight 4:13 AM EDT 11:04 PM EDT
Moon 7:33 PM EDT 5:00 AM EDT
Length of Visible Light 15h 53m
Length of Day
14h 48m
Waxing Gibbous, 97% of the Moon is Illuminated
May 23
Waxing Gibbous
May 25
Full
May 31
Last Quarter
Jun 8
New
Jun 16
First Quarter

Hourly Weather History & Observations

Time (EDT) Temp. Dew Point Humidity Pressure Visibility Wind Dir Wind Speed Gust Speed Precip Events Conditions
12:15 AM 60.8 °F 59.0 °F 94% 29.74 in 4.0 mi Calm Calm - N/A   Mostly Cloudy
12:35 AM 60.8 °F 59.0 °F 94% 29.74 in 5.0 mi Calm Calm - N/A   Scattered Clouds
12:54 AM 60.8 °F 59.0 °F 94% 29.74 in 7.0 mi Calm Calm - N/A   Scattered Clouds
1:14 AM 60.8 °F 57.2 °F 88% 29.74 in 10.0 mi Calm Calm - N/A   Mostly Cloudy
1:35 AM 60.8 °F 57.2 °F 88% 29.73 in 10.0 mi Calm Calm - N/A   Mostly Cloudy
1:55 AM 60.8 °F 57.2 °F 88% 29.73 in 10.0 mi SW 3.5 mph - N/A   Scattered Clouds
2:14 AM 60.8 °F 57.2 °F 88% 29.73 in 10.0 mi Calm Calm - N/A   Scattered Clouds
2:35 AM 60.8 °F 57.2 °F 88% 29.73 in 10.0 mi Calm Calm - N/A   Scattered Clouds
2:55 AM 59.0 °F 57.2 °F 94% 29.74 in 10.0 mi Calm Calm - N/A   Scattered Clouds
3:15 AM 59.0 °F 57.2 °F 94% 29.74 in 10.0 mi Calm Calm - N/A   Mostly Cloudy
3:34 AM 57.2 °F 57.2 °F 100% 29.74 in 10.0 mi Calm Calm - N/A   Scattered Clouds
3:55 AM 57.2 °F 57.2 °F 100% 29.74 in 10.0 mi Calm Calm - N/A   Clear
4:15 AM 57.2 °F 55.4 °F 94% 29.74 in 10.0 mi SW 3.5 mph - N/A   Clear
4:34 AM 57.2 °F 55.4 °F 94% 29.75 in 7.0 mi Calm Calm - N/A   Mostly Cloudy
4:55 AM 57.2 °F 57.2 °F 100% 29.75 in 5.0 mi Calm Calm - N/A   Mostly Cloudy
5:14 AM 57.2 °F 57.2 °F 100% 29.75 in 7.0 mi WSW 4.6 mph - N/A   Scattered Clouds
5:35 AM 59.0 °F 57.2 °F 94% 29.76 in 7.0 mi WSW 5.8 mph - N/A   Scattered Clouds
5:55 AM 59.0 °F 55.4 °F 88% 29.76 in 10.0 mi WSW 6.9 mph - N/A   Scattered Clouds
6:14 AM 59.0 °F 55.4 °F 88% 29.76 in 7.0 mi WSW 5.8 mph - N/A   Mostly Cloudy
6:35 AM 59.0 °F 55.4 °F 88% 29.77 in 7.0 mi West 6.9 mph - N/A   Mostly Cloudy
6:55 AM 59.0 °F 55.4 °F 88% 29.77 in 7.0 mi West 8.1 mph - N/A   Mostly Cloudy
7:14 AM 57.2 °F 55.4 °F 94% 29.78 in 7.0 mi West 10.4 mph - N/A   Mostly Cloudy
7:35 AM 57.2 °F 55.4 °F 94% 29.78 in 5.0 mi West 8.1 mph - N/A   Scattered Clouds
7:55 AM 57.2 °F 55.4 °F 94% 29.79 in 5.0 mi West 6.9 mph - N/A   Mostly Cloudy
8:14 AM 57.2 °F 55.4 °F 94% 29.79 in 5.0 mi West 6.9 mph - N/A   Overcast
8:35 AM 57.2 °F 55.4 °F 94% 29.80 in 5.0 mi West 10.4 mph - N/A   Overcast
8:54 AM 57.2 °F 53.6 °F 88% 29.80 in 5.0 mi West 8.1 mph - N/A   Overcast
9:15 AM 57.2 °F 53.6 °F 88% 29.81 in 5.0 mi West 8.1 mph - N/A   Overcast
9:35 AM 57.2 °F 55.4 °F 94% 29.81 in 7.0 mi West 8.1 mph - N/A   Overcast
9:54 AM 57.2 °F 53.6 °F 88% 29.82 in 10.0 mi WNW 10.4 mph - N/A   Overcast
10:15 AM 57.2 °F 53.6 °F 88% 29.82 in 10.0 mi West 10.4 mph - N/A   Overcast
10:35 AM 55.4 °F 53.6 °F 94% 29.83 in 10.0 mi West 8.1 mph - N/A   Overcast
10:54 AM 55.4 °F 51.8 °F 88% 29.83 in 10.0 mi West 11.5 mph 18.4 mph N/A   Overcast
11:15 AM 53.6 °F 51.8 °F 94% 29.84 in 10.0 mi West 8.1 mph - N/A   Overcast
11:35 AM 51.8 °F 50.0 °F 94% 29.85 in 2.5 mi West 13.8 mph 17.3 mph N/A Rain Rain
11:54 AM 51.8 °F 50.0 °F 94% 29.85 in 1.8 mi West 9.2 mph - N/A Rain Rain
12:15 PM 51.8 °F 50.0 °F 94% 29.86 in 7.0 mi WNW 8.1 mph - N/A   Overcast
12:35 PM 51.8 °F 50.0 °F 94% 29.87 in 10.0 mi WNW 8.1 mph - N/A Rain Light Rain
12:54 PM 51.8 °F 50.0 °F 94% 29.88 in 10.0 mi WNW 10.4 mph 16.1 mph N/A Rain Light Rain
1:15 PM 51.8 °F 50.0 °F 94% 29.88 in 10.0 mi NNW 6.9 mph - N/A   Drizzle
1:35 PM 51.8 °F 51.8 °F 100% 29.89 in 10.0 mi NNW 6.9 mph - N/A Rain Rain
1:54 PM 51.8 °F 51.8 °F 100% 29.90 in 10.0 mi NNW 9.2 mph - N/A Rain Light Rain
2:15 PM 53.6 °F 51.8 °F 94% 29.90 in 7.0 mi NNW 9.2 mph - N/A   Overcast
2:35 PM 53.6 °F 51.8 °F 94% 29.91 in 5.0 mi NNE 17.3 mph 25.3 mph N/A   Light Drizzle
2:54 PM 53.6 °F 51.8 °F 94% 29.93 in 7.0 mi NNE 15.0 mph 24.2 mph N/A   Overcast
3:15 PM 53.6 °F 48.2 °F 82% 29.94 in 10.0 mi NNE 15.0 mph 21.9 mph N/A   Overcast
3:34 PM 51.8 °F 48.2 °F 88% 29.95 in 5.0 mi North 11.5 mph 21.9 mph N/A   Overcast
3:55 PM 53.6 °F 50.0 °F 88% 29.96 in 10.0 mi North 15.0 mph 20.7 mph N/A   Overcast
4:15 PM 53.6 °F 48.2 °F 82% 29.97 in 10.0 mi North 13.8 mph 19.6 mph N/A   Overcast
4:34 PM 53.6 °F 48.2 °F 82% 29.98 in 10.0 mi North 16.1 mph 20.7 mph N/A   Overcast
4:55 PM 53.6 °F 48.2 °F 82% 29.99 in 10.0 mi North 11.5 mph 17.3 mph N/A   Overcast
5:15 PM 53.6 °F 48.2 °F 82% 30.00 in 10.0 mi North 12.7 mph 17.3 mph N/A   Overcast
5:34 PM 53.6 °F 48.2 °F 82% 30.02 in 10.0 mi NNE 15.0 mph 19.6 mph N/A   Overcast
5:55 PM 53.6 °F 48.2 °F 82% 30.03 in 10.0 mi North 15.0 mph 18.4 mph N/A   Overcast
6:15 PM 53.6 °F 46.4 °F 77% 30.04 in 10.0 mi North 16.1 mph 21.9 mph N/A   Overcast
6:34 PM 53.6 °F 46.4 °F 77% 30.04 in 10.0 mi North 11.5 mph 16.1 mph N/A   Overcast
6:55 PM 53.6 °F 46.4 °F 77% 30.06 in 10.0 mi North 10.4 mph 18.4 mph N/A   Overcast
7:15 PM 53.6 °F 46.4 °F 77% 30.05 in 10.0 mi NNE 11.5 mph 16.1 mph N/A   Mostly Cloudy
7:34 PM 53.6 °F 46.4 °F 77% 30.06 in 10.0 mi North 6.9 mph - N/A   Mostly Cloudy
7:55 PM 53.6 °F 46.4 °F 77% 30.08 in 10.0 mi NNE 6.9 mph - N/A   Overcast
8:15 PM 50.0 °F 48.2 °F 94% 30.09 in 7.0 mi North 13.8 mph 21.9 mph N/A   Drizzle
8:34 PM 50.0 °F 48.2 °F 94% 30.10 in 10.0 mi North 10.4 mph - N/A   Light Drizzle
8:55 PM 50.0 °F 46.4 °F 87% 30.11 in 10.0 mi North 10.4 mph - N/A   Overcast
9:15 PM 48.2 °F 46.4 °F 93% 30.11 in 10.0 mi North 10.4 mph - N/A   Overcast
9:35 PM 48.2 °F 46.4 °F 93% 30.12 in 10.0 mi North 13.8 mph - N/A   Overcast
9:55 PM 48.2 °F 46.4 °F 93% 30.14 in 10.0 mi North 8.1 mph - N/A   Overcast
10:14 PM 48.2 °F 44.6 °F 87% 30.15 in 10.0 mi North 10.4 mph - N/A   Overcast
10:35 PM 48.2 °F 44.6 °F 87% 30.16 in 10.0 mi North 10.4 mph - N/A   Overcast
10:55 PM 48.2 °F 44.6 °F 87% 30.17 in 10.0 mi NNE 10.4 mph - N/A   Overcast
11:15 PM 48.2 °F 42.8 °F 82% 30.17 in 10.0 mi NNE 10.4 mph - N/A   Overcast
11:35 PM 48.2 °F 42.8 °F 82% 30.18 in 10.0 mi North 10.4 mph 16.1 mph N/A   Overcast
11:55 PM 48.2 °F 42.8 °F 82% 30.18 in 10.0 mi North 9.2 mph - N/A   Overcast